Temp
17 16 16 16 15 15 15 16 15 14 15 15 14 14 14 15 15 14 14 14 14 14 14 14 14 14 14 14 14 14 14 14 14 14 14 14 14 14 14 14 14 13 13
16 16 16 16 15 15 15 16 15 14 14 15 14 14 14 15 15 15 14 14 14 14 14 14 14 14 14 14 14 14 14 14 14 13 13 13 13 13 14 14 14 13 13
15 16 16 15 15 15 15 16 16 15 14 13 13 13 13 14 14 15 15 15 14 14 14 14 14 14 14 14 14 14 14 14 14 13 13 12 13 13 13 13 13 13 13
13 15 15 15 15 15 15 16 15 15 15 14 13 13 14 13 13 14 14 14 15 15 15 15 14 14 14 14 14 14 14 14 13 13 13 13 13 12 12 12 13 13 12
14 14 15 14 15 15 15 16 15 15 14 15 12 12 13 14 13 14 15 15 15 14 14 15 16 16 15 15 15 15 14 14 13 13 13 12 12 12 11 10 11 12 12
13 13 14 15 14 15 15 15 15 16 16 15 15 15 13 13 14 14 15 15 15 15 14 16 17 16 16 16 15 16 14 14 14 13 13 12 12 12 12 11 11 11 10
14 13 13 14 14 14 15 16 16 16 16 15 15 15 15 14 14 15 15 15 16 15 14 14 15 16 15 15 15 14 15 14 14 13 13 12 12 11 11 10 10 10 10
14 13 13 14 15 15 15 16 16 16 16 15 15 15 15 15 15 15 15 16 15 15 14 15 15 15 15 15 15 14 14 14 13 13 13 12 12 11 11 11 10 9 9
13 13 13 14 14 14 15 15 16 16 16 15 16 15 15 15 15 15 15 15 15 15 15 15 15 15 14 14 14 14 13 13 13 12 12 11 11 11 11 10 9 9 8
11 11 13 14 14 14 15 15 15 15 15 15 15 15 15 15 15 15 15 15 14 14 14 14 14 14 14 13 13 13 13 13 12 11 12 11 11 10 10 9 9 9 8
10 10 10 12 13 14 13 14 14 14 14 13 12 13 13 13 13 13 13 13 13 13 13 13 13 13 13 13 12 12 12 11 10 10 11 10 10 10 9 9 8 8 7
8 8 10 11 12 12 12 12 12 12 12 12 11 11 11 12 12 12 12 12 12 12 12 12 12 12 11 11 11 11 11 9 10 10 10 10 9 9 8 8 7 7 7
6 7 8 8 9 10 10 11 11 11 11 11 11 11 11 11 11 11 11 11 11 11 11 10 10 10 10 10 9 9 9 9 9 9 9 9 8 8 8 7 7 6 6
6 7 6 8 9 9 9 10 10 10 10 10 10 10 10 10 10 10 10 10 10 9 9 9 8 8 8 7 7 6 7 7 8 8 7 7 7 6 6 6 5 5 5
7 7 7 8 9 9 9 9 9 10 10 10 10 9 9 9 9 9 9 9 8 8 7 7 6 6 5 5 5 4 5 6 6 6 6 6 5 5 5 4 4 4 4
7 7 8 9 9 9 9 9 9 9 9 9 9 9 9 9 8 8 8 8 7 6 5 4 4 4 3 3 3 3 4 4 4 4 4 4 4 4 4 3 4 4 3
8 9 9 9 9 9 9 8 8 8 8 8 8 8 8 8 8 7 7 6 5 4 4 4 4 4 4 3 3 3 3 3 3 3 3 3 3 3 3 3 3 3 2
9 9 9 9 9 9 9 8 8 8 8 8 7 7 7 7 6 6 6 5 5 5 4 4 4 3 3 3 3 3 3 3 2 2 2 2 2 2 3 2 3 3 3
9 9 9 9 9 9 8 8 8 8 8 7 7 7 6 6 6 5 5 4 4 5 4 3 3 3 3 3 2 2 2 2 2 1 1 1 2 2 2 2 2 2 2
9 9 10 10 10 9 8 8 8 8 7 7 6 6 6 6 5 5 4 4 3 3 3 3 2 2 2 2 1 1 1 1 1 1 1 2 2 2 2 2 1 1 1
8 8 8 9 9 9 8 8 7 7 6 6 6 5 5 5 4 4 4 3 3 2 2 2 2 1 1 1 0 -0 0 1 1 1 1 1 1 1 1 1 1 0 -0
7 7 7 7 7 7 7 6 6 5 5 5 5 4 4 4 4 3 3 2 2 1 1 1 1 1 0 0 0 -0 0 1 1 1 1 1 1 0 1 0 0 -0 -1
7 6 6 5 6 6 5 5 4 4 4 4 4 4 3 3 3 3 2 2 1 1 1 1 0 0 -0 -0 0 0 0 0 0 0 0 0 0 -0 0 0 -0 -1 -1
6 6 5 5 5 5 5 5 4 4 4 4 3 3 2 2 2 1 2 1 1 1 1 0 -0 -0 -1 -0 -0 0 -0 -0 -0 0 0 -0 -0 0 -0 -0 -1 -1 -2
5 5 4 4 4 4 4 4 4 4 4 3 2 2 1 1 1 1 1 1 1 0 0 0 -1 -1 -1 0 0 0 0 0 -0 -0 -0 -0 -0 -0 -0 -1 -1 -1 -2
5 4 4 4 4 4 3 3 3 3 3 3 2 1 1 0 0 0 0 0 0 -0 -0 -1 -1 -1 -1 -1 -1 -0 -0 -1 -0 -0 -0 -0 -0 -1 -1 -1 -1 -1 -1
Height
1498 1501 1505 1510 1511 1515 1519 1520 1524 1528 1532 1533 1535 1539 1542 1546 1548 1551 1554 1555 1557 1558 1560 1562 1563 1564 1566 1567 1569 1570 1571 1572 1573 1574 1575 1574 1575 1575 1575 1575 1576 1575 1575
1494 1498 1499 1507 1510 1512 1518 1518 1523 1527 1529 1532 1534 1535 1540 1543 1546 1549 1551 1552 1553 1555 1557 1559 1561 1562 1563 1564 1565 1567 1568 1570 1570 1572 1572 1573 1574 1571 1571 1572 1572 1572 1572
1490 1494 1498 1504 1509 1511 1514 1515 1518 1522 1524 1529 1531 1533 1537 1540 1542 1546 1547 1550 1551 1552 1554 1556 1558 1559 1560 1561 1562 1563 1564 1566 1567 1568 1569 1569 1569 1568 1567 1568 1569 1569 1569
1486 1491 1495 1500 1507 1510 1510 1512 1518 1521 1523 1525 1527 1532 1535 1538 1541 1542 1543 1546 1548 1549 1551 1553 1554 1555 1556 1556 1557 1559 1560 1561 1561 1562 1563 1564 1564 1565 1565 1563 1564 1564 1564
1483 1486 1490 1501 1502 1505 1509 1511 1515 1518 1519 1519 1524 1532 1532 1532 1537 1540 1542 1543 1545 1547 1548 1551 1551 1552 1551 1552 1553 1554 1554 1555 1556 1556 1557 1558 1558 1559 1559 1558 1560 1559 1559
1483 1485 1490 1497 1504 1502 1502 1508 1512 1511 1514 1520 1525 1523 1527 1532 1534 1536 1536 1538 1541 1543 1546 1547 1545 1547 1547 1548 1547 1549 1548 1549 1550 1550 1551 1551 1551 1552 1553 1553 1553 1554 1554
1478 1483 1484 1491 1494 1498 1502 1505 1506 1507 1511 1515 1517 1521 1524 1528 1530 1532 1533 1535 1535 1537 1542 1542 1541 1542 1544 1543 1541 1540 1540 1542 1543 1545 1545 1545 1545 1546 1547 1547 1547 1548 1548
1472 1477 1482 1485 1489 1493 1496 1499 1500 1503 1505 1509 1511 1516 1520 1520 1524 1526 1528 1527 1529 1534 1534 1536 1535 1535 1537 1537 1536 1535 1535 1536 1537 1538 1539 1539 1540 1540 1541 1542 1543 1542 1542
1466 1470 1476 1479 1483 1487 1491 1494 1495 1498 1500 1503 1506 1509 1513 1515 1517 1522 1521 1523 1525 1527 1527 1527 1528 1528 1529 1529 1529 1529 1529 1530 1531 1532 1533 1533 1534 1536 1536 1537 1537 1539 1538
1460 1463 1467 1471 1476 1479 1483 1488 1490 1492 1494 1497 1499 1502 1506 1509 1511 1514 1515 1516 1518 1519 1520 1521 1521 1521 1521 1522 1522 1522 1522 1522 1524 1526 1527 1528 1529 1530 1531 1532 1533 1533 1533
1458 1459 1463 1466 1470 1474 1480 1483 1486 1488 1490 1493 1496 1498 1500 1503 1506 1508 1509 1510 1511 1513 1513 1513 1513 1514 1514 1514 1514 1514 1515 1516 1517 1519 1521 1522 1524 1524 1526 1527 1527 1528 1528
1456 1458 1460 1463 1468 1473 1476 1479 1482 1486 1488 1490 1493 1496 1498 1500 1502 1504 1505 1505 1506 1506 1505 1506 1506 1507 1508 1507 1509 1509 1508 1510 1511 1512 1513 1516 1518 1520 1521 1522 1522 1522 1522
1455 1457 1460 1463 1467 1470 1475 1477 1482 1485 1487 1489 1491 1494 1495 1497 1498 1499 1500 1501 1501 1501 1501 1501 1501 1502 1501 1503 1504 1505 1503 1505 1506 1507 1510 1510 1513 1514 1515 1517 1517 1517 1518
1457 1460 1462 1465 1468 1472 1475 1479 1481 1484 1486 1487 1489 1491 1493 1494 1495 1497 1497 1497 1497 1497 1497 1497 1497 1498 1497 1499 1499 1498 1500 1500 1502 1504 1505 1506 1508 1510 1512 1512 1512 1513 1514
1459 1462 1464 1467 1469 1472 1475 1477 1480 1482 1483 1484 1486 1488 1490 1491 1493 1493 1493 1495 1494 1493 1493 1493 1494 1493 1493 1494 1493 1494 1495 1497 1497 1499 1499 1501 1504 1507 1508 1508 1507 1507 1509
1459 1462 1464 1467 1469 1472 1474 1476 1478 1480 1482 1483 1485 1487 1488 1490 1491 1492 1492 1492 1491 1489 1489 1490 1490 1489 1491 1490 1490 1490 1491 1494 1495 1496 1496 1497 1499 1501 1504 1505 1505 1505 1506
1461 1463 1465 1466 1469 1471 1473 1475 1477 1479 1480 1482 1483 1485 1486 1487 1489 1489 1490 1488 1488 1488 1486 1487 1489 1488 1488 1488 1488 1489 1489 1489 1492 1494 1494 1496 1496 1498 1501 1503 1504 1503 1504
1461 1463 1465 1467 1469 1470 1472 1474 1476 1478 1479 1480 1482 1484 1485 1486 1487 1487 1487 1485 1485 1485 1484 1485 1487 1487 1486 1486 1486 1487 1487 1488 1489 1492 1493 1494 1494 1496 1498 1501 1502 1501 1502
1460 1462 1463 1465 1467 1469 1471 1472 1474 1475 1477 1478 1480 1481 1481 1482 1483 1483 1483 1482 1481 1483 1483 1483 1485 1484 1484 1483 1485 1485 1486 1487 1488 1490 1492 1493 1494 1495 1497 1499 1499 1498 1498
1459 1460 1462 1463 1464 1466 1467 1468 1470 1472 1473 1475 1476 1477 1478 1478 1479 1479 1479 1480 1479 1480 1480 1482 1482 1481 1482 1482 1483 1484 1485 1487 1488 1490 1491 1492 1493 1494 1496 1495 1495 1495 1495
1458 1459 1459 1460 1460 1461 1462 1464 1465 1468 1471 1472 1472 1473 1474 1475 1475 1476 1476 1477 1478 1478 1478 1479 1479 1480 1480 1481 1482 1483 1485 1486 1488 1489 1490 1491 1492 1492 1493 1493 1492 1492 1492
1458 1458 1457 1456 1457 1457 1458 1459 1461 1465 1468 1469 1469 1470 1470 1471 1471 1472 1473 1474 1474 1475 1475 1476 1477 1477 1478 1479 1481 1483 1485 1486 1488 1488 1489 1490 1490 1490 1491 1490 1490 1490 1490
1458 1456 1455 1455 1455 1455 1455 1457 1460 1462 1463 1464 1465 1465 1466 1467 1468 1469 1469 1470 1470 1471 1472 1473 1474 1475 1476 1478 1480 1482 1484 1485 1486 1487 1487 1488 1488 1488 1488 1488 1488 1488 1488
1455 1455 1455 1454 1454 1455 1455 1457 1458 1458 1459 1460 1460 1461 1462 1463 1464 1464 1466 1466 1467 1467 1468 1470 1471 1472 1474 1476 1478 1480 1481 1483 1484 1485 1485 1486 1486 1486 1486 1486 1486 1486 1486
1454 1454 1453 1452 1452 1453 1453 1454 1455 1455 1455 1456 1457 1457 1457 1459 1459 1460 1461 1462 1463 1464 1465 1467 1469 1470 1472 1474 1477 1479 1480 1481 1482 1482 1483 1484 1484 1484 1484 1484 1483 1483 1483
1452 1452 1451 1451 1451 1450 1451 1451 1452 1452 1452 1452 1452 1453 1453 1454 1455 1455 1456 1458 1458 1459 1461 1463 1465 1468 1471 1472 1474 1476 1477 1478 1479 1480 1480 1480 1481 1481 1481 1481 1480 1480 1480
Wind_Speed
30 24 15 12 10 18 21 20 26 21 21 23 25 27 30 27 27 24 22 20 20 20 19 18 18 18 18 16 14 14 14 12 12 11 11 13 15 15 14 14 14 14 12
28 30 19 12 13 13 23 23 22 24 19 18 18 20 23 25 24 22 22 22 21 20 20 19 19 18 18 18 17 16 15 14 14 11 10 7 8 11 9 8 6 8 8
25 32 27 18 18 14 26 21 20 18 17 18 13 14 18 19 20 20 23 21 20 20 19 18 19 20 19 19 18 19 18 17 17 17 12 6 7 6 11 12 12 14 16
17 27 30 24 19 15 13 14 18 19 14 9 14 15 14 12 14 17 17 21 20 21 21 21 21 20 21 23 23 21 20 21 23 21 22 21 19 11 10 15 18 19 19
19 29 33 27 23 15 17 16 16 16 16 10 12 18 18 15 14 19 21 19 19 20 19 23 21 22 25 25 23 24 26 26 26 26 25 23 23 24 24 16 16 22 23
24 26 29 32 25 19 20 22 26 24 23 20 22 15 14 25 27 27 23 24 22 20 21 25 23 27 27 27 23 28 25 23 24 25 25 25 24 25 23 25 23 23 23
26 26 31 36 32 31 32 32 32 30 29 29 28 29 30 28 28 29 30 28 25 22 24 27 27 29 32 28 27 26 27 25 25 24 25 26 27 26 24 24 25 24 23
26 25 26 28 28 28 27 25 30 31 27 34 33 30 29 30 29 31 31 28 26 26 28 26 25 23 24 24 24 24 24 25 26 25 26 26 24 23 22 22 21 22 21
24 26 25 26 27 26 27 24 22 25 25 26 29 29 29 28 28 27 26 25 24 26 23 22 21 22 23 24 25 26 26 26 26 26 26 25 23 20 19 18 18 20 16
11 16 24 26 26 25 24 24 23 22 23 24 25 27 29 28 28 27 25 23 22 22 22 23 24 25 26 27 28 30 30 29 28 25 25 25 23 22 20 18 18 19 17
9 11 16 22 25 25 23 23 21 19 18 18 18 19 21 21 21 21 21 22 22 23 23 24 25 26 27 28 29 30 29 29 26 25 26 24 25 21 20 18 20 19 17
8 11 14 19 21 22 21 20 18 17 16 14 14 14 15 16 17 18 19 19 20 21 22 22 21 21 22 21 22 21 21 19 20 23 27 24 21 22 21 21 19 19 17
10 11 13 15 16 17 17 16 16 14 13 12 11 11 12 13 14 15 17 18 18 19 19 20 20 21 20 20 20 19 18 17 18 21 22 20 22 22 20 19 19 15 14
11 12 12 14 15 15 14 14 14 13 12 11 10 10 10 11 12 12 13 15 16 18 18 19 19 19 18 18 19 18 18 20 22 25 22 22 21 18 18 16 14 15 15
10 11 13 13 14 14 13 12 10 10 9 9 9 9 9 8 8 9 10 13 15 16 17 18 18 18 17 17 18 17 18 20 21 22 20 19 17 16 15 15 14 14 14
10 10 11 11 11 11 11 11 10 10 9 9 9 9 9 9 8 8 10 12 13 14 14 14 14 14 14 12 12 13 15 16 16 17 16 16 15 15 14 14 12 11 11
9 10 10 8 9 10 10 11 11 11 11 11 12 12 11 11 10 8 8 10 12 12 10 11 13 12 12 11 11 12 13 13 13 13 12 13 13 13 13 13 11 10 9
9 9 9 9 10 11 12 13 13 13 13 13 13 13 12 12 12 11 10 7 8 12 12 12 12 12 11 10 10 12 12 13 13 13 13 12 12 13 11 10 9 9 9
8 8 8 9 11 13 15 16 16 16 15 15 14 14 14 14 14 14 14 12 8 10 12 11 11 10 9 10 11 12 13 13 13 13 13 13 12 11 9 8 8 8 9
6 7 8 9 12 15 19 21 21 20 17 16 14 14 15 15 15 15 14 15 11 11 12 11 11 9 9 7 10 12 12 14 14 14 13 12 10 8 7 7 8 8 8
2 5 8 10 13 15 18 22 24 22 19 16 15 15 15 15 15 15 14 15 14 12 12 12 11 10 10 9 11 13 13 13 13 12 11 10 8 7 7 7 7 7 7
5 7 9 10 11 13 16 20 22 19 17 16 15 15 15 16 16 15 15 16 16 15 14 14 13 12 12 12 13 14 14 12 11 10 10 8 7 6 6 6 5 6 6
3 8 10 8 6 5 8 11 13 15 15 15 15 16 16 17 17 16 17 17 17 17 17 16 15 15 14 14 15 14 13 11 11 10 9 8 7 6 5 5 5 4 5
6 7 8 7 7 6 6 9 11 13 14 14 15 16 17 18 20 18 17 17 19 19 19 18 18 17 16 16 16 15 14 12 12 10 10 8 7 6 6 5 5 5 6
6 6 6 6 7 9 10 11 12 13 13 14 16 17 18 20 20 20 19 19 20 19 19 18 18 18 19 17 15 14 13 13 12 11 10 9 8 7 7 6 6 6 6
5 5 7 6 7 9 10 11 12 12 13 15 16 19 19 19 20 20 20 19 18 18 18 18 17 16 16 16 17 16 15 14 13 13 12 11 10 9 8 8 8 8 8
Wind_Direction
211 206 206 222 309 210 215 218 214 220 226 224 228 231 225 224 226 227 227 229 227 223 220 218 220 222 226 229 229 230 230 230 235 246 260 264 267 269 274 275 276 277 275
213 206 197 228 279 226 219 216 211 217 217 227 233 232 232 234 235 232 227 230 226 222 222 223 226 230 230 232 234 236 239 241 242 246 251 274 259 270 267 270 269 280 275
214 212 203 235 263 244 222 214 209 213 220 226 229 231 233 237 239 240 235 236 228 225 226 227 231 234 236 238 239 241 243 249 252 247 237 237 240 247 277 280 280 273 279
206 199 205 240 254 250 228 222 206 205 201 231 230 237 245 245 248 244 254 253 240 237 236 235 234 237 238 238 240 243 245 245 247 250 248 245 251 262 269 273 277 277 275
208 210 209 228 238 257 242 209 212 213 222 242 236 235 243 253 256 249 257 255 251 253 250 250 251 253 244 242 244 248 246 252 252 256 259 258 257 256 254 264 264 277 279
203 207 214 228 227 246 231 225 238 227 222 226 238 238 250 249 240 246 252 251 248 253 251 256 258 268 268 253 248 252 254 261 261 259 257 257 262 263 260 265 271 279 274
204 201 209 220 228 227 234 228 230 226 227 223 225 230 227 238 242 243 242 244 250 244 245 253 248 248 253 261 261 259 262 258 259 260 259 261 260 259 265 267 273 273 276
214 213 212 214 213 218 226 226 224 228 227 221 223 231 231 232 232 234 240 238 238 245 245 247 248 250 252 254 257 258 257 256 257 257 257 256 257 256 262 264 267 276 269
222 223 218 222 217 217 219 222 225 227 227 223 222 223 228 228 231 235 236 239 236 238 243 247 250 254 257 258 258 259 259 258 259 259 254 253 253 259 258 267 267 266 270
221 216 218 220 218 217 218 218 217 220 225 227 224 224 228 231 232 233 238 237 238 240 243 248 255 260 261 262 262 261 259 257 255 255 254 254 251 251 252 264 277 269 262
188 200 199 204 209 211 212 212 213 215 217 218 218 221 223 225 224 226 228 234 242 248 254 260 264 265 265 264 262 260 257 253 249 250 253 252 254 247 249 263 277 272 259
173 176 183 192 195 200 203 205 207 207 206 208 211 216 220 225 233 240 248 253 258 264 268 268 268 265 262 261 259 256 254 246 241 250 251 241 245 248 253 263 262 264 258
138 153 166 175 185 191 196 198 202 208 214 220 229 236 243 248 252 258 262 265 267 266 267 266 266 265 264 260 256 251 249 237 236 235 255 236 246 254 252 254 259 249 249
133 140 147 159 173 181 188 194 201 207 213 220 230 238 244 249 254 257 262 267 269 270 268 268 266 265 263 261 258 251 241 239 240 242 249 255 248 246 253 243 244 253 253
145 151 158 163 173 182 191 199 208 215 218 220 219 221 227 238 252 266 277 280 278 277 275 271 269 269 268 259 252 246 241 239 238 239 239 237 240 245 243 247 238 237 239
165 171 178 183 189 196 200 203 207 210 212 215 221 228 236 242 253 272 290 297 295 288 283 278 272 273 270 268 255 241 234 237 239 240 238 238 235 230 231 231 232 229 223
185 192 196 202 205 204 205 208 213 218 223 230 235 238 240 244 251 270 288 306 304 297 283 278 270 265 262 250 244 235 227 224 225 226 221 223 213 214 218 221 220 220 221
189 196 204 214 217 216 217 219 223 229 233 238 241 243 247 248 252 261 262 258 284 287 277 266 260 250 245 238 232 215 208 206 205 210 213 206 205 199 200 205 212 224 237
194 204 217 227 230 231 232 233 233 235 237 240 241 245 248 251 257 262 265 250 243 269 265 255 245 238 238 241 226 213 207 209 207 202 195 191 191 194 205 220 236 249 259
195 219 233 240 241 239 237 236 237 237 239 240 242 247 247 252 256 257 256 250 234 240 250 242 232 230 226 235 213 203 203 200 194 189 187 189 195 210 226 240 254 261 267
306 281 269 260 255 249 242 238 237 237 237 236 243 249 252 255 253 252 250 243 240 240 237 232 231 225 227 220 202 189 191 190 190 192 196 202 209 228 248 251 253 264 269
24 334 299 285 269 253 240 230 231 231 232 239 247 250 252 252 249 246 246 243 239 235 234 233 232 229 220 209 201 197 189 192 198 205 209 218 227 246 247 254 259 258 261
336 349 329 289 280 252 223 215 215 222 236 247 252 257 253 248 241 242 248 245 239 237 236 233 229 224 217 207 203 202 201 203 212 214 220 228 238 243 251 255 264 264 259
296 316 323 289 263 247 221 219 227 240 248 253 257 256 253 250 240 238 244 247 244 237 234 232 229 222 217 211 208 207 208 212 216 221 227 233 237 242 247 254 257 259 264
295 283 308 300 265 249 244 241 241 246 252 259 261 260 257 249 246 244 245 253 254 243 239 237 235 228 222 218 217 216 218 218 222 227 231 236 240 247 252 258 261 264 267
310 290 290 301 280 267 256 252 249 251 259 263 264 262 258 252 251 249 249 251 246 238 234 229 230 227 223 221 219 219 221 227 234 236 238 241 243 246 253 258 260 263 267